{"data":{"norad_id":57829,"intl_designator":"2023-138X","name":"STARLINK-30418","alt_names":[],"object_type":"PAYLOAD","status":"ACTIVE","operator":null,"country":"US","launch_date":"2023-09-09","launch_site_code":"AFETR","launch_vehicle":null,"mission":null,"orbit_class":"UNKNOWN","rcs_meters":null,"size_class":null,"mass_kg":null,"dimensions":null,"purposes":["comms"],"wikipedia_slug":null,"has_3d_model":false,"image_url":null,"decayed_at":null,"tle_current":{"epoch":"2026-09-20T05:37:38.494848Z","epoch_age_seconds":157589,"freshness":"FRESH","line1":"1 57829U 23138X   26263.23447332  .00000113  00000+0  13643-4 0  9990","line2":"2 57829  43.0004 215.3002 0001209 264.9863  95.0851 15.27576219168320","mean_motion":15.27576219,"eccentricity":0.0001209,"inclination_deg":43.0004,"raan_deg":215.3002,"arg_perigee_deg":264.9863,"mean_anomaly_deg":95.0851,"bstar":1.3643e-5,"rev_number":16832,"period_min":94.266982039212,"perigee_km":482.23089896941,"apogee_km":483.88993650502,"semimajor_km":6861.1974177372,"source":"CELESTRAK","updated_at":"2026-09-21T09:00:33.711081Z"}}}